SL-14 DEB, 45357

Orbit data source: Space-Track

SL-14 DEB, 45357 is space debris in LEO originally from a launch on Thu, 15 Aug 1991 UTC launched from the Plesetsk Missile And Space Complex (PKMTR). Debris objects in space refer to the collection of defunct objects orbiting the Earth. Examples of debris include non-operational satellites, rocket bodies, and fragments generated from explosions, collisions, or faulty payload assembly.

Loading next visibility...
Identifier
45357, 1991-056CR
Orbit
LEO
Last TLE update
1 day ago
Origin
Manufacturer
Unknown
Mission
Spacecraft
Bus & Motor
Unknown
Mass
Unknown
Launch date (UTC)
1991-08-15 (34 years ago)
Launch vehicle
Unknown
Launch site
Plesetsk Missile And Space Complex (PKMTR)
Object type
Payload
Rocket body
Debris
Shape & HBR
Unknown
Radar Cross Section
Small (<0.1 m²)

Expand to show TLE details & history

TLE from 1 day ago
0 SL-14 DEB
1 45357U 91056CR  25181.89840755  .00000863  00000-0  16251-2 0  9992
2 45357  82.5698 349.3285 0074306  90.8813 270.0835 13.36388710259323
Epoch: 2025-06-30T21:33Z
TLE epoch observation values (Epoch: 2025-06-30T21:33:42.412Z)
Latitude
-0.00002°
Longitude
106.70017°
Altitude
1,125.931 km
Speed
7.29 km/s
True Right ascension
23h 17m 18s
True Declination
0° 00' 00"
Sunlit
Object was in daylight at epoch
Visualization orbit readout
Latitude
-11.10608°
Longitude
104.25922°
Altitude
1,135.467 km
Speed
7.281 km/s
Apparent Right ascension
01h 29m 21s
Apparent Declination
-33° 16' 37"
Sunlit
Object is in daylight
Visualization observer readout
Local Sidereal Time
17:32:36
Azimuth
102.307° ESE
Elevation
-41.665°
Doppler factor
1
Orbital elements
Apogee altitude
1,175.694 km
Perigee altitude
1,064.263 km
Semi-major axis
7,498.116 km
Eccentricity
0.00743
Inclination
82.5698°
RAAN
349.3285°
Arg. of periapsis
90.8813°
True anomaly
Unknown
Mean anomaly
270.0835°
Eccentric anomaly
Unknown
Mean motion
3.34284 °/min
Orbital period
107.69 mins
BSTAR
0.0016251
Loading maneuver chart data...
Loading SW <> Apogee altitude chart data...
Loading historical data...
Loading historical data...
Loading historical data...
Loading historical data...
Loading historical data...
Loading historical data...
Loading historical data...

SL-14 DEB Visibility forecast

Observer location: undefined°, undefined°

Span
Click to sort rows by Start time (UTC) header in descending order
Start Az.
Max El. time (UTC)
Max El. Az.
Max El.
End time (UTC)
End Az.
13 mins2025-07-02 11:22:57.959Z169.731° S2025-07-02 11:29:57.959Z78.064° E40.385°2025-07-02 11:35:57.959Z15.701° NNE
8 mins2025-07-02 13:14:57.959Z251.058° W2025-07-02 13:18:57.959Z294.66° NW20.707°2025-07-02 13:22:57.959Z335.217° NNW
11 mins2025-07-02 22:40:57.959Z0.408° NNE2025-07-02 22:45:57.959Z90.507° ESE43.149°2025-07-02 22:51:57.959Z163.74° S
7 mins2025-07-03 00:30:57.959Z305.949° NW2025-07-03 00:33:57.959Z275.06° WNW17.187°2025-07-03 00:37:57.959Z238.515° WSW
|